Flag for U.S.A. Weather past 2 weeks in Boise, Idaho, U.S.A.

Now
63 °F

Sunny.


Feels Like: 63 °F
Forecast: 55 / 72 °F
Wind: 16 mph from Northwest

Location: Boise Air Terminal

Current Time: Sep 3, 2015 at 1:20:22 PM

Latest Report: Sep 3, 2015 at 12:53 PM


Visibility: 10 mi

Pressure: 29.88 "Hg (27.12 "Hg at 822m altitude)

Humidity: 48%

Dew point: 43 °F

Location of BoiseLocation

Historic Weather in Boise — Graph

°F

Boise temperature yesterday

Maximum temperature yesterday: 85 °F (at 4:53 PM)
Minimum temperature yesterday: 63 °F (at 5:53 AM)
Average temperature yesterday: 73 °F

Past Weeks' High & Low Weather Summary

 TemperatureHumidityPressure
High96 °F (Aug 24, 4:53 PM)67% (Sep 3, 7:53 AM)30.04 "Hg (Sep 3, 7:53 AM)
Low53 °F (Aug 22, 7:53 AM)12% (Aug 24, 4:53 PM)29.64 "Hg (Sep 2, 8:53 PM)
Average75 °F29%29.85 "Hg
* Reported Aug 19 11:53 AM — Sep 3 11:53 AM, Boise, Weather by CustomWeather, © 2015

Note: Actual official high and low records may vary slightly from our data, if they occured in-between our weather recording intervals... More about our weather records

Advertising

Boise weather history for previous 24 hours

 ConditionsComfort  
Time TempWeatherWind HumidityBarometerVisibility
11:53 AM
Thu, Sep 3
62 °FSunny.21 mph50%29.88 "Hg10 mi
10:53 AM64 °FSunny.20 mph45%29.85 "Hg10 mi
9:53 AM59 °FSunny.17 mph56%29.86 "Hg10 mi
8:53 AM56 °FClear.15 mph65%29.86 "Hg10 mi
7:53 AM55 °FClear.10 mph67%29.84 "Hg10 mi
6:53 AM56 °FClear.9 mph62%29.81 "Hg10 mi
5:53 AM57 °FClear.13 mph60%29.79 "Hg10 mi
4:53 AM58 °FClear.9 mph58%29.78 "Hg10 mi
3:53 AM59 °FClear.10 mph56%29.76 "Hg10 mi
2:53 AM60 °FClear.13 mph53%29.74 "Hg10 mi
1:53 AM62 °FClear.12 mph48%29.71 "Hg10 mi
12:53 AM64 °FClear.14 mph45%29.67 "Hg10 mi
11:53 PM
Wed, Sep 2
67 °FClear.12 mph39%29.65 "Hg10 mi
10:53 PM69 °FClear.13 mph35%29.66 "Hg10 mi
9:53 PM72 °FSunny.8 mph30%29.65 "Hg10 mi
8:53 PM75 °FSunny.9 mph26%29.64 "Hg10 mi
7:53 PM78 °FSunny.12 mph25%29.64 "Hg10 mi
6:53 PM79 °FSunny.16 mph25%29.65 "Hg10 mi
5:53 PM82 °FSunny.12 mph21%29.65 "Hg10 mi
4:53 PM85 °FSunny.6 mph17%29.67 "Hg10 mi
3:53 PM84 °FSunny.3 mph19%29.70 "Hg10 mi
2:53 PM82 °FSunny.6 mph22%29.73 "Hg10 mi
1:53 PM82 °FSunny.No wind19%29.75 "Hg10 mi
Weather by CustomWeather, © 2015

See weather overviewHow to use our weather pages